Simultaneous Nadir Overpasses (SNOs) Predictions

Prediction of SNOs between LANDSAT-8 and METOP-A Satellite Orbit:

Table of predicted SNOs for the next 14.0 days since TLE Epoch: 4/26/2014
Index Date (LANDSAT-8) Time (LANDSAT-8) Lat,Lon (LANDSAT-8) SZA (LANDSAT-8 ) Date (METOP-A) Time (METOP-A) Lat,Lon (METOP-A) SZA (METOP-A ) Distance(km) Time Diff (sec)
1 04/27/2014 11:57:04 -81.03,-141.44 110.89 04/27/2014 11:55:52 -81.02,-141.58 110.94 2.64 72
2 04/27/2014 12:46:29 81.06, 26.63 69.17 04/27/2014 12:46:30 81.06, 26.72 69.18 1.71 1
3 04/27/2014 13:35:37 -81.47,-158.70 109.81 04/27/2014 13:36:51 -81.26,-158.33 109.87 23.41 74
4 04/30/2014 07:31:15 -81.02, -75.05 111.76 04/30/2014 07:30:15 -81.02, -75.13 111.80 1.39 60
5 04/30/2014 08:20:40 81.05, 92.99 68.30 04/30/2014 08:20:53 81.06, 93.18 68.33 3.28 13
6
